FW6597 Weather Reports


time (UTC)temp
C
wind
direction
speed
KPH
gust
KPH
rain 1hr
cm
rain 24hr
cm
rain mn
cm
humidity
%
barometer
mb
20260906090104 20 0 0.0 0.0 0.00 0.00 0.00 96 1013.9
20260906084606 20 0 0.0 1.6 0.00 0.00 0.00 96 1013.9
20260906083106 20 0 0.0 3.2 0.00 0.00 0.00 96 1014.0
20260906081606 20 0 0.0 3.2 0.00 0.00 0.00 96 1013.7
20260906080104 20 0 0.0 3.2 0.00 0.00 0.00 96 1013.6
20260906074609 21 0 0.0 1.6 0.00 0.00 0.00 96 1013.7
20260906073103 21 0 0.0 1.6 0.00 0.00 0.00 96 1013.5
20260906071607 21 0 0.0 0.0 0.00 0.00 0.00 96 1013.7
20260906070110 21 0 0.0 3.2 0.00 0.00 0.00 96 1013.7
20260906064603 21 0 0.0 3.2 0.00 0.00 0.00 96 1013.8
20260906063105 21 0 0.0 1.6 0.00 0.00 0.00 96 1013.7
20260906061609 21 0 0.0 0.0 0.00 0.00 0.00 95 1013.9
20260906060136 21 0 0.0 1.6 0.00 0.00 0.00 96 1014.2
20260906054616 21 0 0.0 1.6 0.00 0.00 0.00 96 1014.5
20260906053105 21 0 0.0 1.6 0.00 0.00 0.00 95 1014.9
20260906051605 21 0 0.0 1.6 0.00 0.00 0.00 95 1014.8
20260906050109 21 0 1.6 4.8 0.00 0.00 0.00 95 1015.0
20260906044605 21 232 1.6 3.2 0.00 0.00 0.00 95 1015.1
20260906043107 21 0 0.0 3.2 0.00 0.00 0.00 95 1014.9
20260906041619 21 216 1.6 4.8 0.00 0.00 0.00 95 1014.9
20260906040109 22 0 0.0 4.8 0.00 0.00 0.00 95 1015.0
20260906034621 22 170 1.6 6.4 0.00 0.00 0.00 95 1015.1
20260906033111 22 0 0.0 0.0 0.00 0.00 0.00 95 1015.0
20260906031605 22 0 0.0 1.6 0.00 0.00 0.00 94 1015.0
20260906030106 22 0 0.0 4.8 0.00 0.00 0.00 94 1015.0
20260906024621 22 0 0.0 3.2 0.00 0.00 0.00 94 1014.9
20260906023104 22 0 0.0 1.6 0.00 0.00 0.00 94 1015.0
20260906021607 22 0 0.0 1.6 0.00 0.00 0.00 94 1014.7
20260906020109 22 0 0.0 3.2 0.00 0.00 0.00 94 1014.7
20260906014607 22 181 0.0 4.8 0.00 0.00 0.00 93 1014.6
20260906013102 22 0 0.0 0.0 0.00 0.00 0.00 93 1014.2
20260906011607 22 0 0.0 4.8 0.00 0.00 0.00 93 1014.4
20260906010143 23 0 0.0 4.8 0.00 0.00 0.00 92 1014.3
20260906004617 23 0 0.0 3.2 0.00 0.00 0.00 92 1014.1
20260906003106 23 0 0.0 3.2 0.00 0.00 0.00 92 1013.8
20260906001608 23 267 1.6 4.8 0.00 0.00 0.00 91 1013.8
20260906000108 23 264 0.0 3.2 0.00 0.00 0.00 91 1013.9
20260905234612 24 264 0.0 3.2 0.00 0.00 0.00 90 1013.9
20260905233106 24 0 0.0 3.2 0.00 0.00 0.00 90 1014.0
20260905231620 24 0 0.0 3.2 0.00 0.00 0.00 90 1013.9
20260905230107 24 264 0.0 4.8 0.00 0.00 0.00 90 1013.7
20260905224604 24 261 0.0 1.6 0.00 0.00 0.00 90 1013.8
20260905223103 24 0 0.0 4.8 0.00 0.00 0.00 91 1013.5
20260905221606 23 0 0.0 1.6 0.00 0.00 0.00 91 1013.7
20260905220106 23 260 1.6 4.8 0.00 0.00 0.00 91 1014.0
20260905214608 23 0 0.0 4.8 0.00 0.00 0.00 90 1014.1
20260905213107 23 0 0.0 3.2 0.00 0.00 0.00 90 1014.1
20260905211613 23 254 1.6 3.2 0.00 0.00 0.00 91 1014.2
20260905210120 23 0 0.0 6.4 0.00 0.00 0.00 91 1014.7
20260905204604 23 0 0.0 4.8 0.00 0.00 0.00 90 1014.6
20260905203105 23 251 1.6 4.8 0.00 0.00 0.00 90 1014.6
20260905201608 23 0 0.0 1.6 0.00 0.00 0.00 87 1014.2
20260905200135 23 236 0.0 4.8 0.00 0.00 0.00 86 1015.0
20260905194605 23 0 0.0 1.6 0.00 0.00 0.00 86 1015.1
20260905193102 24 0 0.0 12.9 0.00 0.00 0.00 85 1015.6
20260905191604 25 327 3.2 11.3 0.00 0.00 0.00 85 1015.2
20260905190104 26 24 1.6 12.9 0.00 0.00 0.00 81 1014.9
20260905184611 28 349 4.8 19.3 0.00 0.00 0.00 69 1014.9
20260905183106 30 313 3.2 25.7 0.00 0.00 0.00 61 1015.2
20260905181610 34 5 6.4 16.1 0.00 0.00 0.00 50 1015.1
20260905180104 36 184 4.8 11.3 0.00 0.00 0.00 49 1014.7
20260905174609 36 173 1.6 4.8 0.00 0.00 0.00 51 1014.9
20260905173105 35 0 1.6 8.0 0.00 0.00 0.00 53 1014.8
20260905171607 35 166 3.2 9.7 0.00 0.00 0.00 53 1014.7
20260905170106 35 171 3.2 8.0 0.00 0.00 0.00 52 1015.0
20260905164614 34 257 0.0 8.0 0.00 0.00 0.00 57 1015.3
20260905163106 33 0 1.6 6.4 0.00 0.00 0.00 58 1015.5
20260905161623 33 186 0.0 6.4 0.00 0.00 0.00 59 1015.7
20260905160123 32 184 0.0 9.7 0.00 0.00 0.00 61 1015.8
20260905154606 32 171 1.6 6.4 0.00 0.00 0.00 66 1015.8
20260905153105 31 0 1.6 6.4 0.00 0.00 0.00 68 1016.1
20260905151644 30 205 0.0 3.2 0.00 0.00 0.00 73 1016.2
20260905150109 28 205 0.0 9.7 0.00 0.00 0.00 76 1016.3
20260905144606 27 0 0.0 4.8 0.00 0.00 0.00 81 1016.3
20260905143112 27 285 1.6 4.8 0.00 0.00 0.00 83 1016.4
20260905141613 26 0 0.0 4.8 0.00 0.00 0.00 89 1016.5
20260905140111 25 276 1.6 3.2 0.00 0.00 0.00 92 1016.4
20260905134609 25 0 0.0 3.2 0.00 0.00 0.00 94 1016.5
20260905133103 23 304 0.0 1.6 0.00 0.00 0.00 94 1016.7
20260905131610 23 0 0.0 4.8 0.00 0.00 0.00 95 1016.6
20260905130107 22 304 1.6 4.8 0.00 0.00 0.00 95 1016.7
20260905124608 22 0 0.0 0.0 0.00 0.00 0.00 95 1016.5
20260905123114 22 0 0.0 4.8 0.00 0.00 0.00 95 1016.4
20260905121608 21 0 0.0 3.2 0.00 0.00 0.00 95 1016.5
20260905120111 21 0 0.0 3.2 0.00 0.00 0.00 95 1016.4
20260905114607 21 0 0.0 0.0 0.00 0.00 0.00 94 1016.4
20260905113112 21 0 0.0 4.8 0.00 0.00 0.00 94 1016.1
20260905111606 21 0 0.0 1.6 0.00 0.00 0.00 94 1016.0
20260905110114 21 0 0.0 1.6 0.00 0.00 0.00 94 1015.7
20260905104612 21 0 0.0 3.2 0.00 0.00 0.00 94 1015.7
20260905103106 22 304 0.0 3.2 0.00 0.00 0.00 94 1015.6
20260905101607 22 0 0.0 4.8 0.00 0.00 0.00 94 1015.5
20260905100111 22 0 0.0 1.6 0.00 0.00 0.00 94 1015.4
20260905094603 22 0 0.0 1.6 0.00 0.00 0.00 93 1015.4
20260905093109 22 0 0.0 0.0 0.00 0.00 0.00 93 1015.4
20260905091605 22 0 0.0 1.6 0.00 0.00 0.00 93 1015.4